Dewpoint
32 32 27 28 29 29 27 20 20 21 25 25 24 26 27 38 46 47 49 52 55 54 55 55 54 54 51 47 43 43 43 42 43 44 44 44 43 43 43 40 39 38 38 39
28 28 30 31 29 26 24 20 20 24 24 23 21 23 23 30 41 43 47 50 51 55 57 57 55 54 54 50 46 43 43 42 42 45 45 46 45 44 44 45 41 40 39 40
25 27 29 28 25 24 22 22 23 23 23 24 22 19 19 22 30 40 45 47 50 50 50 56 57 55 54 53 50 44 44 43 43 45 46 47 47 47 44 44 43 42 40 41
26 28 28 27 24 26 20 26 26 24 22 18 20 11 15 16 24 29 42 45 48 49 50 50 54 58 56 55 53 48 45 45 44 46 47 46 45 44 44 44 44 43 41 41
25 28 29 25 27 28 24 28 27 26 24 20 18 19 12 20 17 19 28 44 46 50 51 52 52 56 58 57 56 53 47 46 45 46 46 47 46 45 45 44 43 41 42 41
25 29 31 29 29 28 29 26 24 24 25 24 20 19 18 15 20 19 18 31 46 48 50 51 52 53 53 58 58 55 50 47 46 46 46 47 47 46 45 44 42 42 42 42
23 22 26 30 25 28 27 26 25 22 25 18 21 21 17 19 21 24 24 24 38 47 49 51 51 53 55 57 57 55 52 48 46 46 46 46 47 47 46 44 43 41 41 41
22 25 21 25 27 26 27 26 23 13 12 12 16 15 20 22 21 21 24 29 31 34 42 49 50 52 55 56 56 54 52 49 47 45 46 46 47 47 46 44 43 41 41 41
14 11 22 26 29 29 22 24 24 21 17 17 14 14 14 18 21 25 25 29 30 34 37 38 46 50 52 54 56 54 52 50 49 46 46 45 46 46 45 44 43 42 41 41
18 16 20 22 28 29 27 25 20 24 16 12 12 12 18 20 19 22 25 27 30 36 40 42 42 41 43 53 55 54 52 50 49 48 45 45 45 46 45 44 43 41 41 41
21 19 11 21 21 18 23 22 22 21 18 14 12 14 18 24 21 21 24 25 27 33 38 41 43 45 45 44 53 53 52 51 48 46 46 46 46 46 45 43 42 41 41 40
20 16 16 9 17 22 22 20 20 17 13 16 16 17 16 17 18 22 21 21 23 31 37 42 44 45 46 46 49 50 51 50 48 47 46 45 44 44 43 42 41 40 39 37
18 12 11 0 18 19 18 17 21 18 20 15 11 13 16 17 19 19 20 20 19 23 32 37 43 45 45 46 47 48 48 47 46 45 44 44 43 43 42 41 40 38 35 30
29 16 12 6 3 7 8 8 11 17 20 15 11 12 14 16 17 19 20 19 20 20 21 34 40 44 45 45 46 46 47 45 42 42 42 42 42 42 41 37 34 28 25 23
25 15 15 16 15 16 14 13 13 15 16 15 15 13 15 17 19 20 20 19 20 20 23 33 40 43 43 44 44 43 41 40 40 40 40 40 40 37 35 30 27 22 20 17
25 19 16 18 13 10 14 15 14 13 13 15 16 16 18 19 19 20 20 21 23 23 25 29 40 43 42 41 41 39 38 37 37 36 34 34 32 29 27 23 20 18 17 16
19 20 16 11 10 8 8 8 9 13 16 17 13 15 20 20 22 22 22 23 22 22 24 31 38 42 42 40 39 37 35 34 34 32 30 29 28 26 24 18 17 17 17 17
12 13 17 14 12 9 8 14 16 18 16 14 18 20 21 22 23 23 24 24 24 25 27 29 34 41 42 41 39 37 35 34 32 31 29 26 23 21 18 17 17 17 17 18
20 18 14 12 9 8 9 13 17 18 15 19 17 19 21 23 24 24 25 25 26 28 31 33 32 38 42 40 38 36 33 31 28 26 24 22 20 17 16 17 17 18 18 18
25 23 16 14 13 10 11 22 24 24 13 17 22 23 22 23 21 22 25 25 28 31 33 34 35 39 41 39 37 33 31 28 26 24 22 20 19 16 16 18 19 19 19 19
23 22 19 18 16 11 13 18 26 13 14 24 24 24 23 24 23 26 26 27 30 32 33 35 37 39 39 37 34 33 31 29 26 23 19 18 16 17 17 19 20 20 19 19
15 17 18 17 15 16 19 24 19 18 24 23 24 26 28 28 27 28 28 28 30 32 33 35 37 37 37 35 33 32 28 25 21 19 19 18 17 17 19 22 22 21 19 17
16 16 14 14 15 20 21 21 22 23 25 26 26 26 25 26 27 27 29 30 30 31 33 35 34 34 34 31 31 28 25 20 19 18 16 15 17 19 21 23 24 18 16 15
21 23 23 24 23 22 22 22 23 24 24 25 24 26 26 26 26 28 28 30 30 31 31 32 32 32 28 27 28 26 20 19 16 14 15 18 18 19 20 21 19 16 15 14
25 23 24 25 26 27 27 29 31 30 29 28 28 27 26 26 27 27 27 28 30 31 30 30 30 29 27 25 25 20 18 15 15 16 17 18 20 19 18 17 17 15 15 15
26 25 23 22 24 31 31 30 33 34 31 32 33 32 30 29 28 29 29 29 30 30 29 28 29 28 25 23 22 19 17 15 15 16 17 20 19 18 17 17 19 23 22 24
Lifted_Index
1 1 1 1 1 1 1 1 1 2 2 2 2 2 1 0 -1 -1 -0 0 -0 -0 -0 -0 -0 0 1 2 4 6 9 10 10 11 11 11 11 11 12 12 13 13 13 13
2 2 2 2 1 1 1 1 2 2 3 3 3 3 2 1 -0 -1 -0 0 0 0 0 -0 -0 0 0 1 2 4 7 9 10 10 10 11 11 11 12 12 13 13 13 13
3 2 2 2 2 2 2 2 2 2 3 3 3 3 3 3 2 0 -0 0 1 1 1 1 1 0 0 0 1 2 4 7 8 9 10 10 10 11 12 12 13 13 13 13
3 3 3 2 2 2 2 2 3 3 3 3 3 3 3 4 3 2 1 0 1 1 2 2 2 1 1 0 0 1 3 5 7 8 8 9 10 10 11 12 12 12 13 13
4 4 3 3 3 3 3 3 3 3 3 3 3 3 4 4 4 4 3 1 1 1 2 3 3 2 1 1 0 1 1 3 5 6 7 8 8 9 10 11 11 12 12 13
4 4 4 4 4 3 3 3 2 2 2 2 3 3 4 4 4 5 4 3 1 1 2 2 3 3 2 1 0 0 1 2 3 5 6 6 7 8 8 9 10 11 11 12
3 4 4 4 4 3 3 3 2 1 1 2 3 3 4 4 5 5 5 5 3 2 1 1 2 3 2 1 1 1 1 1 2 3 4 5 6 6 7 8 9 10 11 11
3 3 4 4 4 3 3 3 2 1 1 1 2 3 3 4 5 5 6 6 5 4 3 2 2 2 1 0 1 1 1 1 1 2 3 4 5 6 6 7 8 9 10 11
3 3 4 4 4 4 3 3 3 2 1 1 2 2 3 4 5 5 6 6 6 6 5 4 3 2 1 0 1 1 2 1 0 1 2 3 4 5 6 7 8 9 10 10
4 3 4 4 4 4 3 3 3 3 2 1 1 2 3 3 4 5 6 6 6 6 6 6 5 4 2 1 1 1 1 1 1 1 1 2 2 3 5 7 7 8 9 9
5 4 4 4 4 4 4 4 4 3 2 2 2 2 2 3 4 5 5 6 6 6 6 6 6 5 5 3 2 1 1 1 0 0 1 1 1 2 4 6 7 8 9 9
5 4 3 4 4 5 5 4 4 4 4 3 2 2 3 3 4 5 5 6 6 6 5 5 5 5 5 5 4 3 2 1 1 -0 -0 0 1 2 5 6 7 8 9 10
6 5 3 3 4 5 5 5 5 5 4 4 3 3 3 4 4 5 5 6 6 6 5 5 5 4 4 4 4 4 4 3 2 1 0 0 1 3 6 7 8 8 9 10
6 5 4 3 4 4 5 4 5 5 5 4 4 4 4 4 5 5 5 5 5 5 5 5 4 4 3 3 3 4 4 4 2 1 0 1 2 4 6 8 8 9 10 10
6 6 5 5 5 5 5 4 4 4 5 5 5 5 5 5 5 5 6 5 5 4 4 4 4 3 3 2 2 2 3 2 2 1 0 2 4 5 6 8 9 9 10 10
7 7 6 6 6 6 5 4 4 4 5 5 5 5 6 6 6 5 5 5 5 4 4 4 4 3 3 2 1 1 1 1 1 1 2 3 4 5 6 8 9 9 10 10
7 7 6 6 6 6 5 5 5 5 5 5 5 5 6 6 6 6 6 6 6 5 5 5 4 3 3 2 1 0 0 1 2 3 3 4 4 5 7 8 9 10 11 11
6 7 6 6 5 5 5 5 5 5 5 5 5 5 6 6 6 6 6 6 6 6 6 5 5 4 3 2 1 1 1 1 2 3 3 4 5 6 7 8 9 11 12 14
6 6 5 4 4 4 5 5 5 5 5 5 5 5 5 6 6 6 6 6 6 6 6 6 5 5 4 3 2 1 1 1 2 2 3 4 6 7 8 9 10 12 14 15
6 5 4 3 3 4 5 5 5 4 4 5 5 5 5 5 6 6 6 7 6 6 6 6 6 6 5 4 3 2 2 2 3 3 4 6 7 8 9 10 12 14 14 14
5 5 4 3 3 4 5 5 5 4 4 5 5 5 5 6 6 6 6 6 7 6 6 6 6 6 5 4 4 3 3 3 4 5 6 7 8 9 11 13 14 14 14 13
5 5 5 5 4 4 5 5 5 4 4 5 5 5 6 6 6 6 6 6 7 7 7 6 6 6 6 5 4 4 4 4 5 6 7 8 9 12 14 15 14 13 14 14
6 5 5 5 5 5 5 5 5 5 5 6 6 6 6 6 7 7 7 7 7 7 7 7 6 6 6 6 5 4 5 5 6 6 7 9 11 14 15 14 13 13 15 16
6 6 6 6 6 6 5 5 5 5 6 6 6 7 7 7 7 8 7 7 7 7 7 7 6 6 6 6 5 5 5 6 6 7 8 10 13 15 15 14 13 14 15 16
7 7 7 7 7 7 7 6 6 6 6 6 7 7 7 7 8 8 8 8 7 7 7 7 6 6 6 6 6 6 6 6 6 7 9 12 14 15 14 13 14 15 16 16
8 8 8 8 8 8 8 7 7 6 6 7 7 7 7 8 8 8 8 8 7 7 6 7 7 6 6 6 6 6 7 7 6 7 10 13 14 14 13 13 15 16 16 16